RH
14 26 31 22 23 21 18 21 20 16 17 22 19 14 13 14 15 17 21 31 39 48 59 75 93 83 86 98 100 100 99 93 100 98 100 100 100 100 100 100 99 100 88 66
25 21 14 18 20 23 23 24 21 17 16 20 19 16 14 14 14 16 18 25 34 45 62 76 91 78 84 100 100 99 98 99 100 98 97 98 99 100 99 99 99 95 95 59
33 20 17 15 24 28 25 24 22 22 18 19 21 20 13 12 17 20 26 27 31 39 54 69 90 71 87 97 100 99 91 96 100 99 91 92 97 99 100 100 97 89 91 63
29 20 20 22 22 21 28 19 22 22 22 26 20 22 13 15 16 15 15 26 33 39 52 62 77 89 82 95 98 98 96 95 100 100 98 92 93 93 90 80 90 84 87 84
31 28 27 25 25 22 26 22 20 25 25 24 23 26 18 15 21 17 14 16 32 42 50 59 68 80 66 96 89 89 97 97 99 100 100 100 100 78 74 83 82 74 73 72
26 20 24 25 20 23 23 29 30 30 30 39 30 24 18 16 19 16 15 21 32 42 51 57 64 70 89 98 99 91 91 93 99 99 100 98 81 68 68 78 82 73 73 82
18 22 17 21 28 24 28 35 41 46 45 41 22 29 20 19 17 16 16 16 30 42 51 58 61 65 76 93 96 97 92 88 97 98 91 89 83 67 69 76 95 94 84 75
23 22 18 18 21 24 33 34 37 38 36 31 28 33 23 18 16 16 21 22 27 40 50 55 56 62 70 87 88 93 97 88 88 97 94 84 97 79 76 90 92 83 70 65
42 31 23 15 17 18 25 36 26 30 27 39 30 28 25 20 20 18 18 17 23 35 46 52 55 63 63 80 88 86 96 95 92 94 98 92 83 73 82 95 93 74 76 68
34 51 29 24 20 18 19 19 37 34 44 39 25 25 25 20 19 16 18 16 20 29 40 48 53 62 66 67 72 85 94 95 99 97 98 95 97 93 95 93 92 91 85 82
38 44 38 34 27 21 21 27 27 25 29 36 35 25 19 19 18 17 17 17 21 29 38 45 51 60 69 74 65 55 75 93 92 96 97 98 99 98 98 94 85 82 80 85
37 44 51 43 32 33 37 28 23 31 30 32 33 29 18 19 19 18 19 21 22 29 37 42 50 57 65 73 70 33 42 50 62 75 86 91 96 96 96 85 90 81 77 82
40 51 51 44 39 41 42 39 42 43 38 39 44 33 18 17 21 23 21 18 22 26 35 41 48 53 60 67 73 68 51 44 70 88 86 87 78 80 82 69 75 96 84 94
43 43 40 35 40 36 44 44 39 46 60 41 35 29 21 18 18 17 16 18 19 25 32 40 45 47 53 60 66 70 74 80 86 88 80 77 66 63 68 60 60 70 67 65
39 51 38 37 33 28 30 30 30 41 40 52 43 37 24 22 19 18 18 18 21 22 22 29 39 42 47 54 60 65 67 76 78 84 84 80 66 62 67 58 53 54 69 64
61 55 59 56 42 40 38 28 27 29 33 34 34 38 28 23 19 18 18 17 17 21 21 21 26 37 45 48 55 60 47 63 73 82 84 86 85 76 78 78 84 70 79 83
63 60 63 56 46 52 61 43 32 25 24 36 47 33 24 23 20 18 22 22 20 22 22 22 24 27 40 52 56 63 58 63 75 78 82 83 91 91 93 91 98 100 98 98
66 65 70 68 62 80 32 31 29 30 35 35 38 34 27 22 20 19 17 21 23 23 23 24 26 27 26 46 53 66 73 76 70 84 90 89 90 97 99 100 99 100 100 100
53 56 70 66 47 34 31 27 43 46 38 36 50 34 24 22 21 20 21 24 26 28 30 32 33 43 30 33 44 76 81 88 94 92 90 95 96 100 99 99 100 100 100 100
47 60 67 58 63 52 23 37 45 38 45 53 51 53 48 43 37 23 23 33 34 37 50 67 59 44 52 53 67 45 70 77 84 95 99 99 100 100 100 100 99 100 100 100
88 91 90 75 75 42 26 35 49 62 55 53 62 58 57 54 41 41 63 53 74 40 55 89 97 93 97 94 81 87 98 99 99 99 99 100 100 100 100 100 100 100 100 100
72 85 89 82 87 76 42 71 94 84 66 56 66 66 64 59 57 82 99 98 100 97 93 99 99 99 99 99 100 99 100 100 100 100 100 100 100 100 100 96 98 100 100 99
45 37 44 60 62 38 44 70 76 74 62 47 69 71 68 72 75 99 100 97 98 100 98 100 99 100 100 100 100 100 99 100 100 100 100 97 93 93 98 96 99 99 99 99
31 32 47 54 36 50 63 75 68 60 48 68 65 70 80 83 99 99 100 100 98 100 100 100 98 98 100 100 100 99 100 100 94 90 95 96 94 99 100 100 100 99 100 99
36 33 38 39 34 34 36 43 43 41 58 70 70 71 87 84 93 97 98 100 100 98 99 100 100 100 98 100 100 100 100 92 88 95 98 99 100 99 98 97 97 95 96 95
41 39 42 45 33 36 35 36 42 43 54 69 72 78 90 96 99 100 100 99 100 100 99 100 99 100 100 100 100 100 100 89 84 89 97 97 95 92 89 89 92 94 92 89
Wind_Speed
19 13 18 22 21 22 15 14 15 12 2 7 13 17 16 18 13 14 13 14 15 14 10 10 8 7 10 10 9 11 6 7 8 10 27 35 44 49 45 52 46 38 44 47
9 20 20 19 22 22 21 19 17 16 14 11 17 17 14 16 16 12 11 14 15 13 13 12 10 8 14 12 11 11 9 10 16 11 24 36 37 37 38 39 35 31 41 45
18 9 12 20 22 19 21 22 18 19 14 13 19 20 20 17 12 10 11 13 13 16 16 16 14 11 15 15 13 15 13 14 17 18 26 29 29 30 33 33 34 34 34 42
13 18 14 16 21 21 21 18 20 17 15 11 3 12 14 11 16 17 18 15 15 15 16 17 17 14 15 18 13 14 14 15 20 23 28 30 32 35 36 33 34 38 38 34
9 10 16 19 19 17 17 15 17 16 16 16 19 10 11 10 12 12 13 15 16 16 19 19 18 15 14 18 18 17 14 16 22 25 26 30 34 39 37 34 35 39 37 41
18 13 8 14 14 16 7 13 10 8 9 13 17 13 10 13 11 6 4 2 12 16 19 19 18 17 16 17 17 18 18 17 22 24 24 27 35 42 38 39 33 36 39 40
16 22 15 13 7 10 14 9 6 8 7 8 7 12 16 7 10 11 11 10 9 15 21 22 23 21 20 20 20 20 20 20 24 27 26 29 31 37 40 36 33 31 39 40
5 5 23 18 20 10 20 17 7 9 10 7 9 8 11 9 11 11 8 6 8 15 21 25 25 23 22 22 22 21 22 24 25 28 26 28 26 35 33 29 30 38 39 40
4 5 2 17 19 18 13 16 19 18 14 7 7 7 8 9 10 10 12 5 10 15 20 25 26 24 23 23 24 24 23 24 26 28 31 31 27 35 35 27 29 33 31 33
5 6 2 2 9 18 19 4 8 11 9 15 12 13 7 9 11 9 8 12 7 14 20 25 27 27 24 23 23 24 24 25 25 27 30 33 31 32 29 30 31 32 29 28
6 3 3 6 7 8 13 16 13 9 12 11 11 9 9 13 11 9 8 7 5 12 19 23 26 26 25 24 25 27 28 27 27 27 28 29 29 30 33 33 36 37 37 34
5 4 6 10 10 9 9 8 18 13 17 10 13 13 1 12 9 6 11 6 2 6 15 18 22 25 27 27 27 28 31 32 30 28 28 29 28 30 32 36 35 36 37 37
7 4 5 5 5 2 4 2 1 6 8 19 14 3 3 8 11 13 11 7 2 5 10 15 20 24 27 28 27 28 28 31 29 28 29 29 30 31 32 34 36 31 32 31
7 7 9 10 7 6 6 6 9 4 5 12 16 17 18 18 15 13 19 14 12 4 9 13 17 21 23 26 27 27 27 27 28 29 29 29 29 29 28 29 30 31 30 30
6 12 12 14 19 18 17 18 17 16 14 14 15 19 13 14 19 19 19 15 11 11 9 11 16 20 21 22 23 25 24 26 28 29 29 28 28 27 27 27 28 28 28 29
1 7 6 14 16 18 20 21 21 21 19 21 22 27 20 23 23 26 25 27 24 16 15 12 13 17 20 22 22 23 23 23 24 25 24 23 23 24 25 25 25 26 27 28
4 4 6 11 5 12 15 22 22 22 20 17 19 20 18 20 22 24 21 20 21 20 19 16 15 16 17 19 20 20 21 21 21 20 19 19 19 20 21 20 20 21 23 21
9 8 4 6 9 9 7 3 14 18 15 10 14 18 21 17 25 27 24 18 14 13 15 16 20 17 17 15 17 17 18 18 18 16 15 14 14 13 12 13 14 16 20 20
19 14 4 4 9 16 18 8 10 12 10 5 11 11 14 25 24 25 22 17 14 13 11 9 11 13 19 16 17 16 17 16 18 19 17 15 15 15 15 15 16 17 17 17
17 16 10 8 7 5 4 12 6 8 13 8 10 13 14 15 14 14 16 8 8 5 2 3 9 12 14 16 19 21 23 23 21 18 17 16 14 13 13 13 12 11 9 9
5 7 16 13 11 8 15 13 12 8 6 19 21 21 21 13 15 5 5 7 5 5 5 9 13 17 21 21 25 28 28 28 26 24 22 20 18 16 14 13 11 9 8 7
7 6 5 6 7 13 7 6 6 12 25 24 22 24 26 20 5 3 6 9 12 16 18 20 24 27 27 26 29 33 32 30 28 25 24 23 21 18 14 10 9 8 6 6
11 10 4 7 5 13 14 5 19 23 24 25 18 30 20 8 2 8 13 18 21 25 30 30 34 33 31 33 30 33 33 29 28 26 23 21 18 16 14 12 12 11 9 9
10 7 6 5 7 13 3 19 25 17 23 19 20 23 12 4 7 11 11 19 25 25 28 28 29 31 34 31 31 33 30 28 26 26 23 22 20 20 18 16 14 14 13 12
9 4 7 9 11 14 13 13 17 22 20 15 11 15 7 8 14 17 14 13 26 31 28 32 34 34 33 30 30 28 26 25 28 28 26 24 22 21 19 19 18 15 14 11
14 13 10 11 14 15 15 19 19 22 19 17 11 2 6 7 13 19 22 19 21 33 29 31 31 33 32 30 29 28 27 26 26 27 25 24 23 21 19 18 17 14 11 8
Wind_Direction
203 213 216 219 225 243 271 262 252 260 285 258 254 269 269 272 269 267 255 244 244 235 222 214 215 220 205 225 217 204 208 222 214 169 148 149 153 169 157 178 184 183 186 189
196 234 237 230 235 240 246 249 252 261 265 272 270 274 270 271 269 270 261 241 240 225 204 208 205 201 201 222 208 200 204 209 190 182 160 165 168 164 177 182 180 178 189 190
220 237 233 231 235 235 239 244 251 254 263 260 270 273 263 253 242 237 251 253 239 226 202 202 201 199 201 211 216 196 204 215 195 185 169 164 172 179 182 182 176 182 187 195
246 254 240 228 233 226 245 232 251 263 257 261 161 278 286 249 262 259 255 236 239 224 203 197 197 194 199 208 201 195 207 205 202 192 188 190 189 186 173 180 189 186 189 191
215 214 215 230 230 222 246 262 252 252 256 257 252 255 268 248 256 252 250 240 231 217 204 190 198 189 198 202 208 203 201 196 200 195 201 194 187 176 180 182 192 194 191 194
254 245 254 249 247 231 223 235 234 237 248 244 242 239 255 244 244 248 224 255 207 210 204 187 194 181 184 193 202 206 201 198 196 195 196 195 190 188 187 187 196 197 200 203
234 244 238 221 219 217 227 208 212 222 213 244 189 215 241 232 257 262 284 263 215 210 200 190 191 185 184 191 195 200 201 195 191 194 196 198 201 197 197 194 203 191 197 202
232 214 223 218 219 202 201 212 221 226 235 241 176 224 233 242 259 250 255 257 209 203 200 199 193 193 188 191 198 199 198 200 199 205 205 197 201 204 206 203 201 202 200 203
325 246 52 235 223 226 196 217 235 262 264 269 235 215 273 240 240 238 254 242 229 213 202 201 194 199 191 193 199 199 198 202 203 202 206 205 206 208 207 205 204 206 208 215
11 283 359 249 227 228 244 216 193 223 243 243 237 240 248 210 234 239 230 248 235 210 200 199 198 197 199 195 199 203 201 200 202 202 202 206 208 209 210 213 212 212 214 220
332 275 269 299 212 201 206 234 242 274 233 255 262 258 182 240 254 276 313 258 249 218 200 197 198 195 201 197 198 208 204 203 201 200 204 205 208 210 212 215 219 222 225 227
11 282 275 275 285 306 307 263 226 235 237 230 254 258 210 229 264 269 312 280 258 207 193 192 198 195 198 203 198 210 213 212 210 207 206 209 210 212 215 218 219 222 226 230
7 196 257 229 221 115 225 147 242 299 267 254 253 218 91 292 284 274 288 306 223 188 189 188 191 197 201 205 205 206 214 215 213 209 209 210 214 215 218 221 222 223 227 231
276 248 259 271 334 332 274 264 277 272 249 261 252 262 265 274 278 272 282 272 283 207 196 198 197 199 203 207 208 207 208 211 211 210 212 214 217 220 223 226 228 231 235 237
248 248 246 258 275 285 279 277 275 264 257 258 271 273 269 248 263 277 279 277 291 258 201 210 211 209 204 204 205 208 207 213 211 213 217 219 221 225 227 231 235 237 237 241
48 251 285 262 255 257 263 266 261 257 263 268 264 259 260 269 265 265 261 264 268 264 259 225 221 220 214 209 206 204 203 207 207 210 216 218 224 227 231 233 233 237 239 242
273 246 237 251 255 269 251 247 250 259 248 269 271 269 257 248 241 248 250 250 253 255 261 255 232 229 222 213 208 205 201 200 202 203 208 214 217 221 224 229 230 230 234 240
236 210 245 278 290 235 261 312 240 247 257 283 296 278 251 256 241 233 253 251 248 262 274 263 254 249 232 211 207 198 192 192 192 191 196 200 205 210 215 218 219 220 224 226
216 228 244 250 252 274 296 274 229 242 277 332 333 325 258 247 257 258 254 263 264 269 283 261 243 225 226 202 193 176 169 168 171 179 180 182 190 198 206 213 218 222 228 229
213 214 232 226 254 260 226 15 347 311 275 7 359 339 337 313 254 252 251 219 219 215 254 205 195 191 183 171 170 174 166 163 159 156 155 155 160 173 183 186 188 189 198 206
163 193 220 229 246 257 280 329 320 240 333 350 329 333 315 323 290 254 202 198 175 189 142 153 151 150 148 154 154 146 143 139 138 142 142 141 141 144 144 148 140 137 140 140
176 192 183 220 240 244 358 41 334 322 319 313 327 312 305 324 296 120 125 130 132 136 132 133 134 126 126 132 141 134 131 130 135 136 134 131 130 126 123 124 118 117 120 129
241 227 247 210 212 281 309 322 297 301 297 307 290 290 285 329 154 105 121 129 129 132 134 140 134 132 131 135 137 132 125 131 130 127 119 119 118 117 116 117 114 112 111 107
262 241 237 215 232 243 260 273 272 301 320 308 276 274 260 121 137 132 134 135 129 127 131 135 129 126 119 123 128 123 125 127 124 117 114 112 113 113 109 107 106 109 104 100
276 253 257 269 280 281 275 241 307 320 325 339 305 263 223 194 181 166 153 142 136 138 135 135 131 125 121 124 122 120 123 127 118 116 112 111 110 109 110 108 103 102 102 102
256 257 267 274 286 294 293 302 302 312 321 333 333 211 159 164 152 150 148 143 137 140 144 134 128 128 124 124 120 120 120 119 117 113 112 111 108 106 105 104 105 101 99 98